FW2300 Lithia FL US current weather conditions

sailwx.info

Wind from 300 at 2 knots gusting 6

Air temperature 33.3° C
Dewpoint 19.8° C

Last reported at 2020-Aug-03 17:00 UTC.
Time now 2020-Aug-03 18:11 UTC

Location: N 27°51' W 082°11'.
View on Google Maps.

See reports from other nearby stations

  
Tides and Currents Weather Stations Pressure Air Temp Water Temp Dewpoint Dewpoint Depression Visibility Wind Speed Wind Dir Waves Ship Positions
date/time (UTC)wind fromknots sea level pressurealtimeterstation pressurevisibilityair tempwater tempwave heightnotes
2020-Aug-03 17:00 300 2 gusting 6 33.3
2020-Aug-03 16:45 289 2 gusting 8 32.8
2020-Aug-03 16:30 234 1 gusting 7 32.2
2020-Aug-03 16:15 286 5 gusting 7 32.2
2020-Aug-03 16:00 236 1 gusting 6 32.2
2020-Aug-03 15:45 317 2 gusting 6 31.7
2020-Aug-03 15:30 277 3 gusting 6 31.7
2020-Aug-03 15:15 289 3 gusting 6 31.1
2020-Aug-03 15:00 295 2 gusting 5 30.6
2020-Aug-03 14:45 295 3 gusting 7 30.0
2020-Aug-03 14:30 278 1 gusting 6 29.4
2020-Aug-03 14:00 288 0 gusting 3 27.8
2020-Aug-03 13:46 288 0 gusting 3 27.2
2020-Aug-03 13:31 239 26.7
2020-Aug-03 13:16 207 26.1
2020-Aug-03 12:46 281 24.4
2020-Aug-03 12:31 282 23.9
2020-Aug-03 12:16 282 23.3
2020-Aug-03 12:00 282 22.8
2020-Aug-03 11:46 282 22.2
2020-Aug-03 11:32 282 22.2
2020-Aug-03 11:16 282 22.2
2020-Aug-03 11:02 282 22.2
2020-Aug-03 10:45 282 22.2
2020-Aug-03 10:30 282 22.8
2020-Aug-03 10:16 282 22.8
2020-Aug-03 10:00 282 22.8
2020-Aug-03 09:46 282 22.2
2020-Aug-03 09:30 282 22.2
2020-Aug-03 08:46 283 22.8
2020-Aug-03 08:30 283 23.3
2020-Aug-03 08:15 283 23.3
2020-Aug-03 08:00 283 23.3
2020-Aug-03 07:45 283 23.3
2020-Aug-03 07:30 283 23.3
2020-Aug-03 07:15 283 23.9
2020-Aug-03 07:00 283 23.9
2020-Aug-03 06:45 283 24.4
2020-Aug-03 06:30 283 24.4
2020-Aug-03 06:15 283 24.4
2020-Aug-03 06:00 284 0 gusting 1 25.0
2020-Aug-03 05:45 284 1 gusting 4 25.0
2020-Aug-03 05:30 304 0 gusting 2 25.0
2020-Aug-03 05:15 303 0 gusting 1 25.0
2020-Aug-03 05:00 303 25.0
2020-Aug-03 04:45 303 25.0
2020-Aug-03 04:30 303 25.6
2020-Aug-03 04:15 304 25.6
2020-Aug-03 03:47 317 25.6
2020-Aug-03 03:32 324 26.1
2020-Aug-03 03:17 347 26.1
2020-Aug-03 03:03 314 26.7
2020-Aug-03 02:48 350 1 gusting 3 26.7
2020-Aug-03 02:32 355 26.7
2020-Aug-03 02:17 318 26.7
2020-Aug-03 02:03 323 0 gusting 3 27.2
2020-Aug-03 01:47 015 27.2
2020-Aug-03 01:32 013 27.8
2020-Aug-03 01:19 013 1 gusting 4 27.8
2020-Aug-03 01:03 355 2 gusting 5 28.3
2020-Aug-03 00:46 058 2 gusting 6 28.3
2020-Aug-03 00:32 005 1 gusting 7 28.9
2020-Aug-03 00:17 061 1 gusting 5 28.9
2020-Aug-03 00:01 034 3 gusting 6 29.4
2020-Aug-02 23:47 045 2 gusting 4 30.0
2020-Aug-02 23:31 039 4 gusting 8 30.6
2020-Aug-02 23:16 044 3 gusting 11 30.6
2020-Aug-02 23:02 360 2 gusting 8 30.6
2020-Aug-02 22:46 044 2 gusting 10 30.6
2020-Aug-02 22:30 044 5 gusting 13 31.1
2020-Aug-02 22:17 355 5 gusting 11 31.1
2020-Aug-02 22:01 048 3 gusting 11 31.7
2020-Aug-02 21:46 355 3 gusting 11 31.1
2020-Aug-02 21:31 038 4 gusting 10 31.7
2020-Aug-02 21:16 026 4 gusting 9 31.7
2020-Aug-02 21:02 330 6 gusting 10 31.7
2020-Aug-02 20:46 028 4 gusting 8 31.1
2020-Aug-02 20:31 338 3 gusting 8 31.1
2020-Aug-02 20:16 015 4 gusting 12 31.7
2020-Aug-02 20:01 031 5 gusting 10 31.7
2020-Aug-02 19:46 005 6 gusting 12 31.7
2020-Aug-02 19:31 030 4 gusting 9 30.6
2020-Aug-02 19:16 350 4 gusting 11 30.0
2020-Aug-02 19:00 019 5 gusting 12 30.0
2020-Aug-02 18:46 020 5 gusting 13 31.1
2020-Aug-02 18:31 033 5 gusting 12 29.4
2020-Aug-02 18:16 041 8 gusting 13 28.9
2020-Aug-02 18:00 058 7 gusting 12 31.7
2020-Aug-02 17:46 065 5 gusting 10 32.2
2020-Aug-02 17:31 058 5 gusting 12 32.2
2020-Aug-02 17:15 087 7 gusting 13 32.8
2020-Aug-02 17:00 061 5 gusting 10 32.8
2020-Aug-02 16:45 043 6 gusting 12 32.2
2020-Aug-02 16:30 041 5 gusting 11 32.2
2020-Aug-02 16:15 012 6 gusting 12 31.7
2020-Aug-02 16:01 031 5 gusting 10 32.2
2020-Aug-02 15:45 081 5 gusting 11 32.2
2020-Aug-02 15:31 046 6 gusting 13 32.2
2020-Aug-02 15:15 355 6 gusting 12 31.7
2020-Aug-02 15:00 032 4 gusting 11 31.7
2020-Aug-02 14:45 360 6 gusting 12 31.1
2020-Aug-02 14:15 051 4 gusting 8 30.0
2020-Aug-02 14:00 038 4 gusting 9 29.4
2020-Aug-02 13:45 024 5 gusting 9 28.3
2020-Aug-02 13:02 066 1 gusting 7 27.8
2020-Aug-02 12:46 025 3 gusting 7 27.2
2020-Aug-02 12:31 015 2 gusting 6 26.7
2020-Aug-02 12:16 021 2 gusting 5 25.6
2020-Aug-02 12:00 332 2 gusting 6 25.6
2020-Aug-02 11:47 010 2 gusting 4 25.0
2020-Aug-02 11:31 014 1 gusting 3 24.4
2020-Aug-02 11:16 344 1 gusting 3 24.4
2020-Aug-02 11:02 005 1 gusting 3 24.4
2020-Aug-02 10:46 005 2 gusting 4 23.9
2020-Aug-02 10:32 011 1 gusting 4 23.9
2020-Aug-02 10:15 338 1 gusting 3 23.9
2020-Aug-02 10:02 319 2 gusting 4 23.9
2020-Aug-02 09:46 360 1 gusting 4 23.9
2020-Aug-02 09:31 346 23.9
2020-Aug-02 09:16 349 0 gusting 2 24.4
2020-Aug-02 09:01 033 0 gusting 2 24.4
2020-Aug-02 08:45 029 1 gusting 3 24.4
2020-Aug-02 08:31 030 0 gusting 2 23.9
2020-Aug-02 08:16 350 23.9
2020-Aug-02 08:01 355 23.9
2020-Aug-02 07:46 333 24.4
2020-Aug-02 07:30 343 0 gusting 3 24.4
2020-Aug-02 07:16 332 0 gusting 2 24.4
2020-Aug-02 07:00 011 24.4
2020-Aug-02 06:46 012 23.9
2020-Aug-02 06:30 012 24.4
2020-Aug-02 06:15 012 24.4
2020-Aug-02 06:01 012 24.4
2020-Aug-02 05:45 012 23.9
2020-Aug-02 05:30 009 23.9
2020-Aug-02 05:15 130 23.9
2020-Aug-02 05:00 130 24.4
2020-Aug-02 04:45 130 24.4
2020-Aug-02 04:30 130 25.6
2020-Aug-02 04:15 130 25.6
2020-Aug-02 04:00 130 0 gusting 2 26.1
2020-Aug-02 03:45 130 26.7
2020-Aug-02 03:30 130 1 gusting 3 26.7
2020-Aug-02 03:15 124 1 gusting 3 27.2
2020-Aug-02 03:00 117 2 gusting 4 27.2
2020-Aug-02 02:31 109 0 gusting 4 28.3
2020-Aug-02 02:17 128 2 gusting 5 28.9
2020-Aug-02 02:15 117 1 gusting 5 28.9
2020-Aug-02 02:01 117 2 gusting 6 28.9
2020-Aug-02 01:46 103 2 gusting 7 28.9
2020-Aug-02 01:31 084 1 gusting 4 29.4
2020-Aug-02 01:01 081 3 gusting 7 29.4
2020-Aug-02 00:47 093 0 gusting 2 29.4
2020-Aug-02 00:33 082 0 gusting 5 29.4
2020-Aug-02 00:17 076 30.6
2020-Aug-02 00:02 081 0 gusting 4 31.1
2020-Aug-01 23:46 078 0 gusting 2 31.7
2020-Aug-01 23:32 078 2 gusting 4 32.2
2020-Aug-01 23:16 052 0 gusting 4 32.2
2020-Aug-01 23:01 081 1 gusting 4 32.8
2020-Aug-01 22:46 088 2 gusting 7 32.8
2020-Aug-01 22:33 066 3 gusting 6 33.3
2020-Aug-01 22:16 113 2 gusting 8 33.3
2020-Aug-01 22:02 065 2 gusting 9 33.3
2020-Aug-01 21:46 091 6 gusting 9 33.9
2020-Aug-01 21:32 082 3 gusting 6 34.4
2020-Aug-01 21:16 060 2 gusting 8 34.4
2020-Aug-01 21:01 061 2 gusting 9 34.4
2020-Aug-01 20:46 084 2 gusting 7 33.3
2020-Aug-01 20:31 039 4 gusting 8 34.4
2020-Aug-01 20:17 011 3 gusting 10 34.4
2020-Aug-01 20:01 055 4 gusting 9 33.9
2020-Aug-01 19:46 046 4 gusting 8 33.9
2020-Aug-01 19:30 094 2 gusting 8 33.9
2020-Aug-01 19:16 024 3 gusting 9 33.9
2020-Aug-01 19:01 094 3 gusting 7 33.9
2020-Aug-01 18:45 117 2 gusting 7 34.4
2020-Aug-01 18:31 069 4 gusting 8 34.4
2020-Aug-01 18:16 054 5 gusting 7 35.0
2020-Aug-01 18:01 155 1 gusting 7 35.0